Location: Mount Kobau Star Party
(49.1167°N, 119.7333°W)
Time: 08:01:35
(UTC-07:00)

N. Korean satellite - Visible Passes

Search period start: 18 October 2017 00:00
Search period end: 28 October 2017 00:00
Orbit: 459 x 517 km, 97.2° (Epoch: 17 October)

Date Brightness Start Highest point End Pass type
(mag) Time Alt. Az. Time Alt. Az. Time Alt. Az.
18 Oct 8.8 19:36:12 10° SSW 19:39:15 28° W 19:42:18 10° NW visible
19 Oct 7.4 19:12:24 10° S 19:15:50 52° W 19:19:15 10° NNW visible
20 Oct 6.4 18:48:58 10° SSE 18:52:28 79° ENE 18:55:57 10° N visible
21 Oct 6.9 18:25:53 10° SE 18:29:11 40° ENE 18:32:28 10° N visible
21 Oct 9.8 20:00:46 10° SW 20:02:55 15° W 20:05:03 10° NW visible
22 Oct 8.8 19:36:23 10° SSW 19:39:25 27° W 19:42:25 10° NW visible
23 Oct 9.8 06:59:44 10° NE 07:02:07 17° E 07:04:31 10° SE visible
23 Oct 7.4 19:12:33 10° S 19:15:58 51° W 19:19:21 10° NNW visible
24 Oct 6.4 18:49:07 10° SSE 18:52:35 80° ENE 18:56:03 10° N visible
25 Oct 6.9 18:26:00 10° SE 18:29:17 41° ENE 18:32:33 10° N visible
25 Oct 9.7 20:00:57 10° SW 20:03:02 15° W 20:05:07 10° NW visible
26 Oct 8.8 19:36:31 10° SSW 19:39:30 27° W 19:42:29 10° NW visible
27 Oct 9.8 06:59:46 10° NE 07:02:13 18° E 07:04:41 10° SE visible
27 Oct 7.4 19:12:40 10° S 19:16:02 50° W 19:19:25 10° NNW visible
